Volver al catálogo

STARLINK-2232

ActivoComunicacionesVLEO
NORAD 48578·PAYLOAD·🇺🇸 United States

Lanzado May 15, 2021 desde Cape Canaveral Space Force Station

Loading…

Próximos Pases (próximas 24 horas)

TLE

ActualizadoSource: CelesTrak SupGP

Época: Sep 14, 2026, 20:10 UTC

1 48578C 21041AB  26257.84076389 -.00031217  00000+0 -10038-2 0  2573
2 48578  53.1601 326.4817 0001060  80.9004 136.0761 15.31718886    12

Sigue STARLINK-2232 en tiempo real con AllMySat

Download on the App Store